Ludington, MI

9:55 PM EDT on July 22, 2017 (GMT -0400)
Mason County

Weather History for KLDM - December, 2011

Change the Weather History Date:

Monday, December 19, 2011

  Actual Average Record
Temperature  
Mean Temperature 37 °F -  
Max Temperature 41 °F 33 °F 53 °F (2002)
Min Temperature 33 °F 19 °F -2 °F (1983)
Degree Days  
Heating Degree Days 28    
Moisture  
Dew Point 32 °F    
Average Humidity 78    
Maximum Humidity 87    
Minimum Humidity 65    
Precipitation  
Precipitation 0.00 in - - ()
Sea Level Pressure  
Sea Level Pressure 29.88 in    
Wind  
Wind Speed 14 mph (NW)    
Max Wind Speed 21 mph    
Max Gust Speed 30 mph    
Visibility 10 miles    
Events      
Averages and records for this station are not official NWS values.
T = Trace of Precipitation, MM = Missing Value Source: NWS Daily Summary

Daily Weather History Graph

Daily Weather History Graph

Search for Another Location

Airport or City:

Trip Planner

Search our weather history database for the weather conditions in past years. The results will help you decide how hot, cold, wet, or windy it might be!

Date:

Astronomy

Dec. 19, 2011 Rise Set
Actual Time 8:15 AM EST 5:09 PM EST
Civil Twilight 7:42 AM EST 5:42 PM EST
Nautical Twilight 7:06 AM EST 6:19 PM EST
Astronomical Twilight 6:31 AM EST 6:54 PM EST
Moon 2:17 AM EST (12/19) 1:14 PM EST (12/19)
Length of Visible Light 9h 59m
Length of Day
8h 53m
Waning Crescent, 31% of the Moon is Illuminated
Dec 19
Waning Crescent
Dec 24
New
Jan 1
First Quarter
Jan 9
Full
Jan 16
Last Quarter

Hourly Weather History & Observations

Time (EST) Temp. Windchill Dew Point Humidity Pressure Visibility Wind Dir Wind Speed Gust Speed Precip Events Conditions
12:14 AM 41.0 °F 31.9 °F 35.6 °F 81% 29.77 in 10.0 mi SW 19.6 mph 27.6 mph N/A   Clear
12:35 AM 41.0 °F 33.1 °F 35.6 °F 81% 29.77 in 10.0 mi SW 15.0 mph 28.8 mph N/A   Clear
12:55 AM 41.0 °F 33.1 °F 35.6 °F 81% 29.76 in 10.0 mi SW 15.0 mph 25.3 mph N/A   Clear
1:14 AM 41.0 °F 31.6 °F 35.6 °F 81% 29.74 in 10.0 mi SW 20.7 mph 29.9 mph N/A   Clear
1:35 AM 41.0 °F 32.2 °F 35.6 °F 81% 29.75 in 10.0 mi SW 18.4 mph 25.3 mph N/A   Clear
1:55 AM 41.0 °F 31.6 °F 35.6 °F 81% 29.74 in 10.0 mi SW 20.7 mph 26.5 mph N/A   Clear
2:14 AM 41.0 °F 32.2 °F 35.6 °F 81% 29.74 in 10.0 mi SW 18.4 mph 27.6 mph N/A   Clear
2:35 AM 41.0 °F 32.8 °F 35.6 °F 81% 29.75 in 10.0 mi WSW 16.1 mph 23.0 mph N/A   Clear
2:54 AM 41.0 °F 33.1 °F 35.6 °F 81% 29.75 in 10.0 mi SW 15.0 mph 23.0 mph N/A   Clear
3:14 AM 41.0 °F 33.1 °F 35.6 °F 81% 29.76 in 10.0 mi WSW 15.0 mph - N/A   Clear
3:35 AM 41.0 °F 33.1 °F 35.6 °F 81% 29.75 in 10.0 mi WSW 15.0 mph 20.7 mph N/A   Clear
3:55 AM 41.0 °F 33.5 °F 35.6 °F 81% 29.75 in 10.0 mi WSW 13.8 mph - N/A   Clear
4:14 AM 41.0 °F 33.1 °F 35.6 °F 81% 29.75 in 10.0 mi WSW 15.0 mph - N/A   Clear
4:35 AM 41.0 °F 33.5 °F 35.6 °F 81% 29.76 in 10.0 mi WSW 13.8 mph 18.4 mph N/A   Clear
4:54 AM 41.0 °F 33.5 °F 35.6 °F 81% 29.76 in 10.0 mi WSW 13.8 mph - N/A   Clear
5:15 AM 41.0 °F 33.5 °F 35.6 °F 81% 29.76 in 10.0 mi WSW 13.8 mph 18.4 mph N/A   Clear
5:35 AM 41.0 °F 33.9 °F 35.6 °F 81% 29.76 in 10.0 mi WSW 12.7 mph 18.4 mph N/A   Clear
5:54 AM 41.0 °F 34.3 °F 35.6 °F 81% 29.76 in 10.0 mi West 11.5 mph 17.3 mph N/A   Clear
6:15 AM 41.0 °F 34.7 °F 35.6 °F 81% 29.76 in 10.0 mi West 10.4 mph 18.4 mph N/A   Clear
6:35 AM 41.0 °F 35.8 °F 35.6 °F 81% 29.77 in 10.0 mi West 8.1 mph 16.1 mph N/A   Clear
6:54 AM 41.0 °F 35.2 °F 35.6 °F 81% 29.77 in 10.0 mi West 9.2 mph - N/A   Clear
7:15 AM 41.0 °F 36.4 °F 35.6 °F 81% 29.78 in 10.0 mi West 6.9 mph - N/A   Clear
7:54 AM 39.2 °F 33.6 °F 35.6 °F 87% 29.79 in 10.0 mi West 8.1 mph - N/A   Clear
8:15 AM 39.2 °F 34.2 °F 35.6 °F 87% 29.81 in 7.0 mi West 6.9 mph - N/A   Clear
8:35 AM 39.2 °F 34.2 °F 35.6 °F 87% 29.81 in 7.0 mi WNW 6.9 mph - N/A   Clear
8:54 AM 39.2 °F 33.6 °F 35.6 °F 87% 29.83 in 10.0 mi WNW 8.1 mph - N/A   Clear
9:15 AM 39.2 °F 33.0 °F 35.6 °F 87% 29.84 in 7.0 mi NW 9.2 mph - N/A   Clear
9:34 AM 39.2 °F 33.6 °F 35.6 °F 87% 29.84 in 7.0 mi NW 8.1 mph - N/A   Mostly Cloudy
9:55 AM 39.2 °F 33.0 °F 33.8 °F 81% 29.86 in 10.0 mi NW 9.2 mph - N/A   Mostly Cloudy
10:15 AM 41.0 °F 35.2 °F 33.8 °F 76% 29.87 in 10.0 mi NNW 9.2 mph - N/A   Scattered Clouds
10:34 AM 41.0 °F 35.2 °F 33.8 °F 76% 29.88 in 10.0 mi North 9.2 mph - N/A   Clear
10:55 AM 41.0 °F 32.8 °F 33.8 °F 76% 29.89 in 10.0 mi NNW 16.1 mph 20.7 mph N/A   Scattered Clouds
11:15 AM 41.0 °F 34.7 °F 33.8 °F 76% 29.91 in 10.0 mi North 10.4 mph 19.6 mph N/A   Mostly Cloudy
11:34 AM 41.0 °F 35.2 °F 32.0 °F 70% 29.91 in 10.0 mi North 9.2 mph - N/A   Overcast
11:55 AM 41.0 °F 32.8 °F 32.0 °F 70% 29.92 in 10.0 mi North 16.1 mph 19.6 mph N/A   Mostly Cloudy
12:34 PM 39.2 °F 33.0 °F 32.0 °F 75% 29.93 in 10.0 mi North 9.2 mph 21.9 mph N/A   Overcast
12:55 PM 37.4 °F 28.9 °F 32.0 °F 81% 29.94 in 10.0 mi North 13.8 mph 20.7 mph N/A   Overcast
1:14 PM 37.4 °F 28.9 °F 30.2 °F 75% 29.95 in 10.0 mi North 13.8 mph 19.6 mph N/A   Overcast
1:34 PM 37.4 °F 28.9 °F 32.0 °F 81% 29.95 in 10.0 mi North 13.8 mph 21.9 mph N/A   Overcast
1:55 PM 37.4 °F 29.3 °F 32.0 °F 81% 29.95 in 10.0 mi North 12.7 mph 25.3 mph N/A   Overcast
2:15 PM 37.4 °F 29.8 °F 32.0 °F 81% 29.97 in 10.0 mi North 11.5 mph 18.4 mph N/A   Overcast
2:34 PM 35.6 °F 27.1 °F 30.2 °F 81% 29.99 in 10.0 mi NNE 12.7 mph 21.9 mph N/A   Light Drizzle
2:55 PM 35.6 °F 27.1 °F 30.2 °F 81% 30.01 in 10.0 mi North 12.7 mph 21.9 mph N/A   Overcast
3:14 PM 35.6 °F 28.0 °F 28.4 °F 75% 30.01 in 10.0 mi North 10.4 mph 19.6 mph N/A   Overcast
3:35 PM 35.6 °F 28.0 °F 28.4 °F 75% 30.02 in 10.0 mi North 10.4 mph 24.2 mph N/A   Overcast
3:55 PM 35.6 °F 28.6 °F 28.4 °F 75% 30.04 in 10.0 mi North 9.2 mph 16.1 mph N/A   Overcast
4:14 PM 35.6 °F 28.0 °F 28.4 °F 75% 30.05 in 10.0 mi North 10.4 mph 16.1 mph N/A   Overcast
4:35 PM 35.6 °F 26.2 °F 28.4 °F 75% 30.06 in 10.0 mi North 15.0 mph 24.2 mph N/A   Overcast
4:54 PM 33.8 °F 26.4 °F 26.6 °F 75% 30.07 in 10.0 mi North 9.2 mph 17.3 mph N/A   Overcast
5:15 PM 33.8 °F 26.4 °F 24.8 °F 70% 30.07 in 10.0 mi NNE 9.2 mph - N/A   Overcast
5:35 PM 33.8 °F 25.8 °F 23.0 °F 65% 30.08 in 10.0 mi North 10.4 mph - N/A   Overcast
5:54 PM 33.8 °F 27.0 °F 23.0 °F 65% 30.09 in 10.0 mi North 8.1 mph - N/A   Overcast
6:15 PM 33.8 °F 27.7 °F 23.0 °F 65% 30.10 in 10.0 mi North 6.9 mph 18.4 mph N/A   Overcast
6:35 PM 33.8 °F 25.8 °F 23.0 °F 65% 30.12 in 10.0 mi North 10.4 mph 18.4 mph N/A   Overcast
6:54 PM 33.8 °F 27.0 °F 23.0 °F 65% 30.13 in 10.0 mi North 8.1 mph - N/A   Overcast
7:15 PM 33.8 °F 26.4 °F 23.0 °F 65% 30.14 in 10.0 mi North 9.2 mph - N/A   Overcast
7:35 PM 33.8 °F 25.8 °F 23.0 °F 65% 30.16 in 10.0 mi North 10.4 mph - N/A   Overcast
8:15 PM 33.8 °F 25.3 °F 24.8 °F 70% 30.17 in 10.0 mi NNE 11.5 mph 16.1 mph N/A   Overcast
8:35 PM 33.8 °F 25.8 °F 24.8 °F 70% 30.19 in 10.0 mi North 10.4 mph - N/A   Overcast
8:54 PM 33.8 °F 27.7 °F 24.8 °F 70% 30.20 in 10.0 mi North 6.9 mph 16.1 mph N/A   Overcast
9:15 PM 33.8 °F 28.6 °F 24.8 °F 70% 30.20 in 10.0 mi North 5.8 mph - N/A   Overcast
9:35 PM 33.8 °F 27.7 °F 24.8 °F 70% 30.20 in 10.0 mi NNE 6.9 mph - N/A   Overcast
9:54 PM 33.8 °F 27.0 °F 23.0 °F 65% 30.21 in 10.0 mi North 8.1 mph - N/A   Overcast
10:14 PM 33.8 °F 26.4 °F 23.0 °F 65% 30.22 in 10.0 mi NE 9.2 mph 17.3 mph N/A   Overcast
10:34 PM 32.0 °F 27.5 °F 21.2 °F 64% 30.22 in 10.0 mi ENE 4.6 mph - N/A   Overcast
10:55 PM 32.0 °F 26.4 °F 21.2 °F 64% 30.22 in 10.0 mi NE 5.8 mph - N/A   Overcast
11:15 PM 32.0 °F 27.5 °F 21.2 °F 64% 30.22 in 10.0 mi NNE 4.6 mph - N/A   Overcast
11:34 PM 32.0 °F 26.4 °F 21.2 °F 64% 30.21 in 10.0 mi NNE 5.8 mph - N/A   Overcast
11:55 PM 32.0 °F 26.4 °F 21.2 °F 64% 30.21 in 10.0 mi NE 5.8 mph - N/A   Overcast